Meteopurmerend
purmerend
Purmerend - Baaienwijk



My webcam  My webcam


Onweer radar Meer informatie blitzortung!


Regen radar Meer informatie rain snow radar


Bezoek onze andere website:

CandyAppleRed WebdesignWebdesign Purmerend Candy Apple Red

MeteopurmerendBlog

Template documentation
and downloads



We konden geen weer-waarchuwingen ophalen. Ga rechtstreeks naar de Meteoalarm site : www.meteoalarm.eu en controleer daar .

15 daagse weersverwachting Spijkenisse (NL)

  • Overzicht
  • Per uur
  • 15 dagen
  • Extra
  • Vergelijk
  • Kaarten
  • Dagkaart
  • Meer »
  • Info
  • Statistieken
  • Directe link
    Temp 6h Neerslag Wind  
 06:28     21:08    Daglengte: 14:40 Vandaag
20:00
30°
 
2
 06:29     21:06    Daglengte: 14:37 Morgen
02:00
24°
 
2
08:00
21°
 
4
14:00
26°
 
4
20:00
24°
 
2
 06:31     21:04    Daglengte: 14:33 Dinsdag 16 Aug
02:00
20°
 
3
08:00
20°
 
4
14:00
25°
 
4
20:00
24°
 
2
 06:33     21:02    Daglengte: 14:29 Woensdag 17 Aug
02:00
20°
0.6 mm
2
08:00
19°
8.3 mm
3
14:00
23°
2.8 mm
3
warningclass
Locatie info
Region: Zuid-Holland
Latitude: 51.8498°N
Longitude: 4.3252°E
1 masl
Postcode: 3201
Temp/Neerslag /Baro Onweer/Dauwpunt
    Temp Baro 1h Neerslag Dauwpunt Wind UV Bewolking  
 06:28     21:08    Daglengte: 14:40 Vandaag
20:00
30°
Voelt als: 28.8°
1004.0 hPa   11.1°
2
Windvlaag: 1.2 m/s
49%
21:00
28°
Voelt als: 27.3°
1004.2 hPa   10.7°
2
Windvlaag: 2.6 m/s
54%
22:00
27°
Voelt als: 26.9°
1004.2 hPa   12.3°
2
Windvlaag: 1.9 m/s
62%
23:00
27°
1003.8 hPa   14.2°
2
Windvlaag: 1.2 m/s
65%
 06:29     21:06    Daglengte: 14:37 Morgen
00:00
26°
1003.4 hPa   14.7°
2
Windvlaag: 0.2 m/s
67%
01:00
25°
1002.9 hPa   15.4°
2
Windvlaag: 0.1 m/s
52%
02:00
24°
1002.7 hPa   16.5°
2
Windvlaag: 0.2 m/s
58%
03:00
23°
1002.6 hPa   17.3°
2
Windvlaag: -0.3 m/s
81%
04:00
23°
1002.4 hPa   17.8°
2
Windvlaag: 2.9 m/s
60%
05:00
22°
1002.3 hPa   18.1°
3
Windvlaag: 3.4 m/s
63%
06:00
22°
1002.2 hPa   18.0°
3
Windvlaag: 3.5 m/s
71%
07:00
21°
1002.4 hPa   16.6°
4
Windvlaag: 5.5 m/s
82%
08:00
21°
1002.6 hPa   16.0°
4
Windvlaag: 6.5 m/s
79%
09:00
22°
1002.8 hPa   16.5°
4
Windvlaag: 6.9 m/s
80%
10:00
23°
1002.9 hPa
11%
17.1°
5
Windvlaag: 7.4 m/s
80%
11:00
24°
1003.0 hPa
12%
16.1°
5
Windvlaag: 7.6 m/s
80%
12:00
25°
1003.2 hPa
13%
15.9°
5
Windvlaag: 7.6 m/s
66%
13:00
26°
1003.0 hPa
23%
14.7°
4
Windvlaag: 7.5 m/s
70%
14:00
26°
1002.9 hPa
65%
14.3°
4
Windvlaag: 7.1 m/s
72%
15:00
25°
1002.9 hPa
80%
19.5°
4
Windvlaag: 7.4 m/s
56%
16:00
26°
1002.7 hPa
80%
17.7°
4
Windvlaag: 7.5 m/s
69%
17:00
24°
1002.5 hPa
80%
19.4°
4
Windvlaag: 7.1 m/s
46%
18:00
24°
1002.9 hPa
80%
17.7°
3
Windvlaag: -0.8 m/s
55% warningclass
19:00
24°
1003.0 hPa
80%
16.0°
2
Windvlaag: -0.1 m/s
37%
20:00
24°
1003.0 hPa
72%
16.2°
2
Windvlaag: 0.3 m/s
21%
21:00
23°
1003.3 hPa
15%
17.1°
2
Windvlaag: 1.1 m/s
53%
22:00
23°
1003.8 hPa
16%
18.3°
2
Windvlaag: 3.3 m/s
68%
23:00
22°
1004.0 hPa
16%
17.9°
2
Windvlaag: 2.7 m/s
41%
 06:31     21:04    Daglengte: 14:33 Dinsdag 16 Aug
00:00
21°
1004.4 hPa
23%
17.5°
3
Windvlaag: 2.3 m/s
19%
01:00
21°
1004.7 hPa
35%
17.5°
3
Windvlaag: 2.6 m/s
24%
02:00
20°
1004.6 hPa
42%
17.9°
3
Windvlaag: 5.1 m/s
75%
03:00
20°
1004.5 hPa
76%
18.4°
3
Windvlaag: 5 m/s
15%
04:00
20°
1004.5 hPa
73%
18.6°
4
Windvlaag: 6 m/s
14%
05:00
20°
1004.6 hPa
68%
17.8°
3
Windvlaag: 5.9 m/s
52%
06:00
20°
1004.6 hPa
17%
16.7°
4
Windvlaag: 5.9 m/s
14%
07:00
20°
1005.0 hPa
19%
16.3°
4
Windvlaag: 5 m/s
53%
08:00
20°
1005.5 hPa
18%
17.3°
4
Windvlaag: 4.9 m/s
64%
09:00
21°
1005.9 hPa
17%
18.2°
4
Windvlaag: 4.3 m/s
62%
10:00
22°
1006.1 hPa
14%
18.0°
3
Windvlaag: 4.4 m/s
51%
11:00
24°
1006.6 hPa
13%
17.8°
4
Windvlaag: 5.2 m/s
76%
12:00
24°
1007.1 hPa
60%
16.0°
5
Windvlaag: 5.5 m/s
72%
13:00
24°
1007.2 hPa
17%
16.3°
5
Windvlaag: 2.8 m/s
25%
14:00
25°
1007.3 hPa
22%
17.3°
4
Windvlaag: 0.5 m/s
39%
15:00
25°
1007.6 hPa
65%
16.1°
4
Windvlaag: -0.2 m/s
62%
16:00
26°
1007.6 hPa
66%
15.0°
4
Windvlaag: -0.1 m/s
37%
17:00
26°
1007.8 hPa
84%
13.8°
3
Windvlaag: -0.9 m/s
88%
18:00
25°
1008.0 hPa
80%
13.3°
3
Windvlaag: -2.6 m/s
87%
19:00
25°
1007.8 hPa
21%
14.3°
2
Windvlaag: -2.5 m/s
80%
20:00
24°
1007.8 hPa
21%
15.0°
2
Windvlaag: -2.4 m/s
75%
21:00
23°
1008.1 hPa
21%
15.7°
3
Windvlaag: -2.4 m/s
63%
22:00
22°
1008.6 hPa
21%
15.7°
3
Windvlaag: -2.1 m/s
29%
23:00
21°
1009.0 hPa
21%
15.7°
3
Windvlaag: -2.1 m/s
54%
 06:33     21:02    Daglengte: 14:29 Woensdag 17 Aug
00:00
21°
1009.4 hPa
21%
15.6°
3
Windvlaag: -1.9 m/s
57%
01:00
20°
1009.5 hPa
21%
15.7°
2
Windvlaag: -1.9 m/s
67%
02:00
20°
1009.2 hPa 0.6 mm
21%
16.3°
2
Windvlaag: -1.4 m/s
97%
03:00
20°
1009.1 hPa 1.7 mm
21%
15.8°
2
Windvlaag: -2.6 m/s
98%
04:00
20°
1008.9 hPa 1.3 mm
22%
17.1°
2
Windvlaag: -2.3 m/s
87%
05:00
20°
1009.0 hPa 1.4 mm
33%
16.8°
3
Windvlaag: -2.4 m/s
82%
06:00
19°
1008.9 hPa 1.3 mm
84%
16.4°
3
Windvlaag: -2.5 m/s
79%
07:00
19°
1009.1 hPa 1.9 mm
36%
14.3°
3
Windvlaag: -3.3 m/s
87%
08:00
19°
1009.5 hPa 0.7 mm
88%
14.7°
3
Windvlaag: -3.9 m/s
91%
09:00
19°
1009.7 hPa 0.9 mm
21%
17.1°
3
Windvlaag: -2.2 m/s
100%
10:00
20°
1009.7 hPa 0.9 mm
90%
17.1°
3
Windvlaag: -3.2 m/s
92%
11:00
20°
1010.0 hPa 1.0 mm
99%
16.6°
3
Windvlaag: -3.3 m/s
96%
12:00
23°
1009.7 hPa
40%
17.9°
3
Windvlaag: 1.6 m/s
79%
13:00
23°
1009.8 hPa
94%
18.0°
3
Windvlaag: 1.6 m/s
94%
14:00
23°
1010.0 hPa
100%
18.8°
3
Windvlaag: 1.7 m/s
100%
15:00
22°
1010.0 hPa 1.4 mm
100%
18.9°
3
Windvlaag: 2.7 m/s
100%
16:00
21°
1009.9 hPa 2.9 mm
100%
16.7°
3
Windvlaag: 3.7 m/s
99%
17:00
21°
1009.7 hPa 4.3 mm
100%
15.4°
3
Windvlaag: 3.8 m/s
99% warningclass
18:00
21°
1009.6 hPa 3.1 mm
100%
15.2°
3
Windvlaag: 4.7 m/s
46% warningclass
19:00
21°
1009.6 hPa 2.1 mm
100%
15.5°
3
Windvlaag: 5.9 m/s
100% warningclass
Temp/Neerslag /Baro Onweer/Dauwpunt
    Temp Baro Neerslag Dauwpunt Wind Bewolking  
 06:28     21:08    Daglengte: 14:40 Vandaag
20:00
30°
Voelt als: 28.8°
1004.0 hPa   11.1°
2
49%
23:00
27°
1003.8 hPa   14.2°
2
65%
 06:29     21:06    Daglengte: 14:37 Morgen
02:00
24°
1002.7 hPa   16.5°
2
58%
05:00
22°
1002.3 hPa   18.1°
3
63%
08:00
21°
1002.6 hPa   16.0°
4
79%
11:00
24°
1003.0 hPa   16.1°
5
80%
14:00
26°
1002.9 hPa   14.3°
4
72%
17:00
24°
1002.5 hPa   19.4°
4
46%
20:00
24°
1003.0 hPa   16.2°
2
21%
23:00
22°
1004.0 hPa   17.9°
2
41%
 06:31     21:04    Daglengte: 14:33 Dinsdag 16 Aug
02:00
20°
1004.6 hPa   17.9°
3
75%
05:00
20°
1004.6 hPa   17.8°
3
52%
08:00
20°
1005.5 hPa   17.3°
4
64%
11:00
24°
1006.6 hPa   17.8°
4
76%
14:00
25°
1007.3 hPa   17.3°
4
39%
17:00
26°
1007.8 hPa   13.8°
3
88%
20:00
24°
1007.8 hPa   15.0°
2
75%
23:00
21°
1009.0 hPa   15.7°
3
54%
 06:33     21:02    Daglengte: 14:29 Woensdag 17 Aug
02:00
20°
1009.2 hPa 0.6 mm 16.3°
2
97%
05:00
20°
1009.0 hPa 4.3 mm 16.8°
3
82%
08:00
19°
1009.5 hPa 3.9 mm 14.7°
3
91%
11:00
20°
1010.0 hPa 2.8 mm 16.6°
3
96%
14:00
23°
1010.0 hPa   18.8°
3
100%
17:00
21°
1009.7 hPa 8.6 mm 15.4°
3
99% warningclass
20:00
21°
1009.8 hPa 7.6 mm 15.6°
3
96% warningclass
23:00
16°
1014.1 hPa 16.2 mm 15.8°
3
0%
 06:34     21:00    Daglengte: 14:26 Donderdag 18 Aug
02:00
16°
1014.0 hPa 16.2 mm 15.5°
3
0%
05:00
16°
1014.0 hPa 16.2 mm 15.0°
3
1%
08:00
17°
1015.1 hPa 16.2 mm 15.2°
3
1%
11:00
20°
1015.6 hPa 16.4 mm 13.2°
4
1%
14:00
20°
1016.0 hPa 16.4 mm 12.0°
5
1%
17:00
20°
1016.2 hPa 16.4 mm 9.7°
5
1%
20:00
18°
1016.2 hPa 16.4 mm 8.5°
4
0%
23:00
14°
1016.9 hPa 16.4 mm 9.5°
2
0%
 06:36     20:57    Daglengte: 14:21 Vrijdag 19 Aug
02:00
13°
1017.3 hPa 16.4 mm 9.5°
1
0%
05:00
13°
1016.9 hPa 16.4 mm 9.4°
2
1%
08:00
15°
1016.9 hPa 16.4 mm 9.6°
2
1%
11:00
19°
1017.0 hPa 16.4 mm 8.8°
4
1%
14:00
23°
1016.2 hPa 16.4 mm 13.4°
6
1%
17:00
23°
1015.6 hPa 16.5 mm 14.2°
6
1%
20:00
21°
1015.2 hPa 16.5 mm 15.8°
4
1%
23:00
19°
1015.1 hPa 16.6 mm 16.3°
4
1%
 06:37     20:55    Daglengte: 14:18 Zaterdag 20 Aug
02:00
18°
1014.7 hPa 16.8 mm 16.7°
4
1%
05:00
17°
1014.6 hPa 16.9 mm 16.5°
4
0%
08:00
19°
1014.8 hPa 16.9 mm 14.3°
4
0%
11:00
22°
1015.9 hPa 16.9 mm 11.8°
6
1%
14:00
22°
1016.7 hPa 16.9 mm 11.8°
7
0%
20:00
19°
1018.2 hPa 17.3 mm 11.0°
4
0%
23:00
16°
1019.2 hPa 17.4 mm 10.7°
2
0%
 06:39     20:53    Daglengte: 14:14 Zondag 21 Aug
02:00
15°
1019.2 hPa 17.4 mm 9.9°
2
1%
05:00
15°
1019.3 hPa 17.4 mm 9.4°
3
1%
08:00
17°
1019.7 hPa 17.5 mm 11.0°
3
1%
11:00
20°
1020.5 hPa 17.6 mm 9.2°
6
0%
14:00
20°
1020.9 hPa 17.7 mm 9.2°
7
0%
17:00
20°
1021.1 hPa 17.7 mm 8.5°
6
1%
20:00
18°
1020.5 hPa 35.4 mm 9.0°
4
1%
 06:41     20:51    Daglengte: 14:10 Maandag 22 Aug
02:00
17°
1019.2 hPa 35.5 mm 9.4°
3
1%
08:00
18°
1016.7 hPa 35.7 mm 14.2°
5
1%
14:00
17°
1016.1 hPa 42.4 mm 15.6°
7
1%
20:00
19°
1014.4 hPa 48.6 mm 15.9°
6
1%
 06:42     20:49    Daglengte: 14:07 Dinsdag 23 Aug
02:00
18°
1013.8 hPa 49.6 mm 16.3°
6
1%
08:00
18°
1012.6 hPa 64.3 mm 17.4°
4
1%
14:00
23°
1014.2 hPa 80.8 mm 14.9°
5
1%
20:00
19°
1017.4 hPa 81.2 mm 15.3°
4
0%
 06:44     20:47    Daglengte: 14:03 Woensdag 24 Aug
02:00
16°
1020.7 hPa 81.2 mm 12.1°
2
0%
08:00
16°
1022.3 hPa 81.2 mm 13.1°
2
0%
14:00
24°
1017.5 hPa 0.2 mm 13.4°
1
41%
20:00
22°
1017.2 hPa 0.2 mm 13.9°
3
33%
 06:45     20:45    Daglengte: 14:00 Donderdag 25 Aug
02:00
18°
1018.0 hPa   13.4°
2
33%
08:00
18°
1018.1 hPa 0.1 mm 12.9°
1
35%
14:00
25°
1018.0 hPa 0.4 mm 13.8°
2
41%
20:00
22°
1018.0 hPa 0.2 mm 14.4°
4
43%
 06:47     20:42    Daglengte: 13:55 Vrijdag 26 Aug
02:00
18°
1018.8 hPa 0.3 mm 13.5°
2
48%
08:00
18°
1019.0 hPa 0.2 mm 13.9°
2
35%
14:00
24°
1019.0 hPa 0.2 mm 14.0°
2
42%
20:00
22°
1018.4 hPa 0.1 mm 14.2°
4
43%
 06:49     20:40    Daglengte: 13:51 Zaterdag 27 Aug
02:00
18°
1019.1 hPa   13.3°
3
41%
08:00
17°
1018.8 hPa 0.1 mm 12.7°
2
45%
14:00
23°
1018.5 hPa 0.3 mm 13.1°
2
50%
20:00
21°
1017.9 hPa 0.3 mm 13.4°
3
47%
 06:50     20:38    Daglengte: 13:48 Zondag 28 Aug
02:00
17°
1018.7 hPa 0.4 mm 12.6°
2
46%
08:00
17°
1018.4 hPa 0.3 mm 12.7°
1
52%
14:00
22°
1018.6 hPa 0.5 mm 13.2°
2
51%
20:00
20°
1018.1 hPa 0.3 mm 13.3°
3
56%
 06:52     20:36    Daglengte: 13:44 Maandag 29 Aug
02:00
17°
1018.7 hPa 0.4 mm 13.0°
2
47%
08:00
17°
1018.7 hPa 0.3 mm 12.8°
1
43%
14:00
23°
1019.0 hPa 0.6 mm 13.1°
2
45%
20:00
20°
1018.7 hPa 0.3 mm 13.3°
3
50%
  CAPE Lifted Index Hail Supercell Tornado SRH 3km CL BTM PRES CL TOP PRES Swiss DWD icon SMHI TS
 06:28     21:08    Daglengte: 14:40 Vandaag
20:00 0 J/kg 0.8 K 0 % 0 % 0 % 0 m²/s² 0 0 4.85 3
21:00 2 J/kg 0.0 K 0 % 0 % 0 % 0 m²/s² 0 0 4.17 3
22:00 17 J/kg -0.8 K 0 % 0 % 0 % 0 m²/s² 0 0 2.29 3
23:00 0 J/kg -1.1 K 0 % 0 % 0 % 0 m²/s² 0 0 1.99 3
 06:29     21:06    Daglengte: 14:37 Morgen
00:00 0 J/kg -0.8 K 0 % 0 % 0 % 0 m²/s² 0 0 2.29 3
01:00 7 J/kg -1.4 K 0 % 0 % 0 % 0 m²/s² 0 0 1.06 3
02:00 26 J/kg -2.0 K 0 % 0 % 0 % 0 m²/s² 0 0 -0.08 3
03:00 9 J/kg -2.1 K 0 % 0 % 0 % 0 m²/s² 0 0 -0.39 3
04:00 0 J/kg -2.1 K 0 % 0 % 0 % 0 m²/s² 0 0 -0.06 3
05:00 0 J/kg -1.7 K 0 % 0 % 0 % 0 m²/s² 0 0 -0.05 3
06:00 0 J/kg -0.9 K 0 % 0 % 0 % 0 m²/s² 0 0 0.3 3
07:00 0 J/kg -0.2 K 0 % 0 % 0 % 0 m²/s² 0 0 1 3
08:00 0 J/kg -0.1 K 0 % 0 % 0 % 0 m²/s² 0 0 1.22 3
09:00 0 J/kg 0.0 K 0 % 0 % 0 % 0 m²/s² 0 0 0.75 3
10:00 0 J/kg 0.0 K 0 % 0 % 0 % 0 m²/s² 0 0 0.12 3
11:00 27 J/kg -0.5 K 0 % 0 % 0 % 0 m²/s² 0 0 -0.47 3
12:00 91 J/kg -0.5 K 0 % 0 % 0 % 0 m²/s² 0 0 -0.47 3
13:00 295 J/kg -1.4 K 0 % 0 % 0 % 0 m²/s² 0 0 -1.04 3
14:00 269 J/kg -1.3 K 0 % 0 % 0 % 0 m²/s² 0 0 -0.91 3
15:00 358 J/kg -1.5 K 0 % 0 % 0 % 0 m²/s² 0 0 -1.2 80
16:00 499 J/kg -1.9 K 0 % 0 % 0 % 0 m²/s² 0 0 -1.54 3
17:00 461 J/kg -2.0 K 0 % 0 % 0 % 0 m²/s² 0 0 -1.46 80
18:00 385 J/kg -1.6 K 0 % 0 % 0 % 0 m²/s² 0 0 -1.6 95
19:00 379 J/kg -1.8 K 0 % 0 % 0 % 0 m²/s² 0 0 -1.8 80
20:00 336 J/kg -1.6 K 0 % 0 % 0 % 0 m²/s² 0 0 -1.48 3
21:00 113 J/kg -1.3 K 0 % 0 % 0 % 0 m²/s² 0 0 -0.73 3
22:00 126 J/kg -1.4 K 0 % 0 % 0 % 0 m²/s² 0 0 -0.74 3
23:00 152 J/kg -1.2 K 0 % 0 % 0 % 0 m²/s² 0 0 -0.57 3
 06:31     21:04    Daglengte: 14:33 Dinsdag 16 Aug
00:00 45 J/kg -0.3 K 0 % 0 % 0 % 0 m²/s² 0 0 0.27 2
01:00 4 J/kg -0.5 K 0 % 0 % 0 % 0 m²/s² 0 0 -0.05 3
02:00 0 J/kg -0.9 K 0 % 0 % 0 % 0 m²/s² 0 0 -0.51 3
03:00 0 J/kg 0.4 K 0 % 0 % 0 % 0 m²/s² 0 0 1.36 80
04:00 0 J/kg 1.7 K 0 % 0 % 0 % 0 m²/s² 0 0 2.69 2
05:00 0 J/kg 1.8 K 0 % 0 % 0 % 0 m²/s² 0 0 2.91 3
06:00 0 J/kg 2.0 K 0 % 0 % 0 % 0 m²/s² 0 0 3.47 2
07:00 0 J/kg 1.1 K 0 % 0 % 0 % 0 m²/s² 0 0 2.69 3
08:00 0 J/kg 0.3 K 0 % 0 % 0 % 0 m²/s² 0 0 1.44 3
09:00 12 J/kg -0.2 K 0 % 0 % 0 % 0 m²/s² 0 0 0.34 3
10:00 255 J/kg -1.6 K 0 % 0 % 0 % 0 m²/s² 0 0 -0.88 3
11:00 354 J/kg -2.1 K 0 % 0 % 0 % 0 m²/s² 0 0 -1.35 3
12:00 220 J/kg -1.3 K 0 % 0 % 0 % 0 m²/s² 0 0 -0.91 80
13:00 42 J/kg 0.2 K 0 % 0 % 0 % 0 m²/s² 0 0 0.83 2
14:00 108 J/kg -0.4 K 0 % 0 % 0 % 0 m²/s² 0 0 0.71 3
15:00 162 J/kg -0.9 K 0 % 0 % 0 % 0 m²/s² 0 0 0.24 3
16:00 203 J/kg -1.2 K 0 % 0 % 0 % 0 m²/s² 0 0 -0.36 3
17:00 247 J/kg -1.5 K 0 % 0 % 0 % 0 m²/s² 0 0 -0.93 3
18:00 330 J/kg -2.0 K 0 % 0 % 0 % 0 m²/s² 0 0 -1.55 3
19:00 289 J/kg -2.0 K 0 % 0 % 0 % 0 m²/s² 0 0 -1.46 3
20:00 102 J/kg -1.7 K 0 % 0 % 0 % 0 m²/s² 0 0 -1.16 3
21:00 0 J/kg -1.6 K 0 % 0 % 0 % 0 m²/s² 0 0 -0.46 3
22:00 0 J/kg -1.8 K 0 % 0 % 0 % 0 m²/s² 0 0 -0.21 2
23:00 0 J/kg -1.8 K 0 % 0 % 0 % 0 m²/s² 0 0 -0.33 3
 06:33     21:02    Daglengte: 14:29 Woensdag 17 Aug
00:00 0 J/kg -1.3 K 0 % 0 % 0 % 0 m²/s² 0 0 0.23 3
01:00 0 J/kg -0.8 K 0 % 0 % 0 % 0 m²/s² 0 0 0.52 3
02:00 0 J/kg -0.9 K 0 % 0 % 0 % 0 m²/s² 0 0 0.36 3
03:00 0 J/kg -1.3 K 0 % 0 % 0 % 0 m²/s² 0 0 -0.73 3
04:00 0 J/kg -1.3 K 0 % 0 % 0 % 0 m²/s² 0 0 -0.79 3
05:00 0 J/kg -0.6 K 0 % 0 % 0 % 0 m²/s² 0 0 -0.51 3
06:00 0 J/kg -0.2 K 0 % 0 % 0 % 0 m²/s² 0 0 0.07 3
07:00 0 J/kg -0.3 K 0 % 0 % 0 % 0 m²/s² 0 0 -0.18 3
08:00 0 J/kg -0.5 K 0 % 0 % 0 % 0 m²/s² 0 0 -0.47 3
09:00 20 J/kg 0.2 K 0 % 0 % 0 % 0 m²/s² 0 0 0.29 3
10:00 56 J/kg 0.1 K 0 % 0 % 0 % 0 m²/s² 0 0 0.4 3
11:00 136 J/kg -0.2 K 0 % 0 % 0 % 0 m²/s² 0 0 0.1 3
12:00 201 J/kg -0.8 K 0 % 0 % 0 % 0 m²/s² 0 0 -0.32 3
13:00 419 J/kg -2.0 K 0 % 0 % 0 % 0 m²/s² 0 0 -1.52 3
14:00 591 J/kg -2.8 K 0 % 0 % 0 % 0 m²/s² 0 0 -2.17 3
15:00 683 J/kg -2.9 K 0 % 0 % 0 % 0 m²/s² 0 0 -1.85 61
16:00 736 J/kg -3.1 K 0 % 0 % 0 % 0 m²/s² 0 0 -1.27 61
17:00 932 J/kg -3.8 K 0 % 0 % 0 % 0 m²/s² 0 0 -1.97 95
18:00 959 J/kg -4.0 K 0 % 0 % 0 % 0 m²/s² 0 0 -2.11 95
19:00 787 J/kg -3.5 K 0 % 0 % 0 % 0 m²/s² 0 0 -1.46 95
Temp Baro Wind Neerslag
  EWN Forecast EWN WRFDA DWD ICON FMI HIRLAM MET Norway GFS
 06:28     21:08    Daglengte: 14:40 Vandaag
20:00 29.9° 1004.0 hPa 2.0 m/s 0.0 mm 29.5° 1003.5 hPa 1.0 m/s 0.0 mm 29.9° 1004.0 hPa 0.4 m/s -2.0 mm 29.4° 1004.6 hPa 2.3 m/s 0.0 mm 27.3° 1003.1 hPa 5.9 m/s
23:00 26.6° 1003.8 hPa 2.1 m/s 0.0 mm 25.7° 1003.1 hPa 3.5 m/s 0.0 mm 25.1° 1003.8 hPa 1.7 m/s 0.0 mm 27.0° 1004.6 hPa 4.0 m/s 0.0 mm 26.0° 1002.4 hPa 4.8 m/s
 06:29     21:06    Daglengte: 14:37 Morgen
02:00 24.3° 1002.7 hPa 2.4 m/s 0.0 mm 23.2° 1001.8 hPa 3.1 m/s 0.0 mm 22.9° 1002.7 hPa 1.6 m/s 0.0 mm 24.5° 1003.4 hPa 2.9 m/s 0.0 mm 23.1° 1001.3 hPa 2.8 m/s
05:00 22.2° 1002.3 hPa 3.1 m/s 0.0 mm 19.2° 1000.7 hPa 2.3 m/s 0.0 mm 21.4° 1002.6 hPa 3.1 m/s 0.0 mm 22.4° 1002.5 hPa 1.6 m/s 0.0 mm 21.6° 1000.9 hPa 4.8 m/s
08:00 21.5° 1002.6 hPa 3.9 m/s 0.0 mm 21.6° 1000.7 hPa 3.5 m/s 0.0 mm 21.0° 1002.8 hPa 3.7 m/s 0.0 mm 21.1° 1002.5 hPa 3.1 m/s 0.0 mm 21.5° 1001.7 hPa 4.0 m/s
11:00 24.1° 1003.0 hPa 4.6 m/s 0.0 mm 25.7° 1001.1 hPa 5.0 m/s 0.0 mm 22.5° 1003.3 hPa 4.4 m/s 0.0 mm 24.2° 1002.9 hPa 4.3 m/s 0.0 mm 23.4° 1002.1 hPa 6.2 m/s
14:00 26.4° 1002.9 hPa 4.1 m/s 0.0 mm 26.1° 1001.2 hPa 6.1 m/s 0.3 mm 23.9° 1003.4 hPa 3.6 m/s 0.0 mm 28.1° 1002.2 hPa 3.9 m/s 0.0 mm 22.9° 1002.9 hPa 5.9 m/s
17:00 24.1° 1002.5 hPa 3.6 m/s 0.0 mm 25.0° 1001.6 hPa 7.0 m/s 1.6 mm 22.8° 1003.6 hPa 3.1 m/s 0.8 mm 23.2° 1002.3 hPa 4.0 m/s 0.0 mm 22.2° 1003.1 hPa 3.9 m/s
20:00 23.7° 1003.0 hPa 2.0 m/s 0.0 mm 24.2° 1001.7 hPa 3.7 m/s 1.8 mm 21.2° 1003.7 hPa 1.8 m/s 1.7 mm 23.9° 1002.0 hPa 0.9 m/s 0.0 mm 21.6° 1003.4 hPa 2.3 m/s
23:00 22.1° 1004.0 hPa 2.3 m/s 0.0 mm 19.5° 1002.6 hPa 1.2 m/s 1.8 mm 20.6° 1004.6 hPa 1.6 m/s 0.0 mm 22.4° 1003.3 hPa 3.5 m/s 0.0 mm 19.9° 1004.4 hPa 2.3 m/s
 06:31     21:04    Daglengte: 14:33 Dinsdag 16 Aug
02:00 20.4° 1004.6 hPa 3.2 m/s 0.0 mm 17.1° 1003.3 hPa 3.3 m/s 1.8 mm 19.9° 1005.0 hPa 1.8 m/s 0.0 mm 20.5° 1003.2 hPa 4.3 m/s 0.0 mm 17.8° 1004.4 hPa 2.7 m/s
05:00 19.8° 1004.6 hPa 3.4 m/s 0.0 mm 15.5° 1002.6 hPa 3.1 m/s 1.8 mm 19.3° 1005.1 hPa 1.8 m/s 0.8 mm 20.0° 1003.0 hPa 3.5 m/s 0.0 mm 17.0° 1004.2 hPa 2.8 m/s
08:00 19.8° 1005.5 hPa 3.5 m/s 0.0 mm 17.6° 1003.4 hPa 3.6 m/s 1.8 mm 19.2° 1006.0 hPa 3.2 m/s 0.0 mm 19.7° 1004.2 hPa 3.5 m/s 0.0 mm 18.4° 1005.0 hPa 3.3 m/s
11:00 23.5° 1006.6 hPa 3.7 m/s 0.0 mm 23.8° 1004.5 hPa 5.5 m/s 1.8 mm 21.1° 1007.2 hPa 2.2 m/s 0.0 mm 23.8° 1005.1 hPa 4.6 m/s 0.0 mm 22.9° 1006.4 hPa 4.6 m/s
14:00 24.5° 1007.3 hPa 4.4 m/s 0.0 mm 24.5° 1005.7 hPa 3.5 m/s 1.8 mm 24.5° 1007.8 hPa 3.0 m/s 0.2 mm 24.4° 1005.1 hPa 5.7 m/s 0.0 mm 25.5° 1007.3 hPa 3.6 m/s
17:00 25.6° 1007.8 hPa 3.0 m/s 0.0 mm 26.2° 1005.4 hPa 2.1 m/s 1.8 mm 25.4° 1008.2 hPa 3.3 m/s 0.1 mm 27.0° 1007.0 hPa 2.7 m/s
20:00 24.3° 1007.8 hPa 2.3 m/s 0.0 mm 23.9° 1005.3 hPa 3.6 m/s 1.8 mm 24.0° 1008.4 hPa 1.7 m/s 0.0 mm 21.9° 1007.8 hPa 4.3 m/s
23:00 21.3° 1009.0 hPa 2.9 m/s 0.0 mm 20.4° 1007.4 hPa 3.5 m/s 2.4 mm 21.0° 1009.5 hPa 1.7 m/s 0.0 mm 19.1° 1009.4 hPa 3.0 m/s
 06:33     21:02    Daglengte: 14:29 Woensdag 17 Aug
02:00 20.2° 1009.2 hPa 2.3 m/s 0.6 mm 19.0° 1006.7 hPa 2.4 m/s 2.4 mm 19.9° 1009.5 hPa 1.9 m/s 0.0 mm 18.2° 1010.2 hPa 2.5 m/s
05:00 19.7° 1009.0 hPa 2.8 m/s 4.3 mm 18.5° 1007.6 hPa 3.3 m/s 2.5 mm 19.9° 1009.2 hPa 1.0 m/s 0.0 mm 18.0° 1010.4 hPa 1.8 m/s
08:00 19.4° 1009.5 hPa 2.9 m/s 3.9 mm 19.5° 1007.9 hPa 3.5 m/s 2.6 mm 19.5° 1009.7 hPa 1.4 m/s 0.1 mm 17.1° 1011.5 hPa 2.2 m/s
11:00 20.5° 1010.0 hPa 2.6 m/s 2.8 mm 20.3° 1009.0 hPa 2.4 m/s 4.6 mm 21.9° 1010.1 hPa 2.3 m/s 0.1 mm 17.4° 1012.5 hPa 1.4 m/s
14:00 23.2° 1010.0 hPa 2.6 m/s 0.0 mm 21.2° 1009.2 hPa 1.5 m/s 5.8 mm 23.7° 1010.1 hPa 2.9 m/s 0.0 mm 18.1° 1013.2 hPa 2.0 m/s
17:00 21.2° 1009.7 hPa 3.2 m/s 8.6 mm 23.0° 1008.8 hPa 3.7 m/s 10.5 mm 20.7° 1009.9 hPa 3.1 m/s 7.7 mm 19.4° 1013.4 hPa 4.0 m/s
20:00 20.9° 1009.8 hPa 3.3 m/s 7.6 mm 21.5° 1009.2 hPa 5.2 m/s 11.2 mm 20.8° 1009.9 hPa 2.8 m/s 5.8 mm 18.9° 1013.1 hPa 3.9 m/s
23:00 16.5° 1014.1 hPa 3.1 m/s 16.2 mm 16.5° 1014.1 hPa 3.1 m/s 16.2 mm
 06:34     21:00    Daglengte: 14:26 Donderdag 18 Aug
02:00 16.0° 1014.0 hPa 2.6 m/s 16.2 mm 16.0° 1014.0 hPa 2.6 m/s 16.2 mm
05:00 15.7° 1014.0 hPa 2.6 m/s 16.2 mm 15.7° 1013.9 hPa 2.6 m/s 16.2 mm
08:00 16.9° 1015.1 hPa 3.0 m/s 16.2 mm 16.9° 1015.1 hPa 3.0 m/s 16.2 mm
11:00 19.9° 1015.6 hPa 4.2 m/s 16.4 mm 19.9° 1015.6 hPa 4.2 m/s 16.4 mm
14:00 20.2° 1016.0 hPa 4.8 m/s 16.4 mm 20.2° 1016.0 hPa 4.8 m/s 16.4 mm
17:00 20.5° 1016.2 hPa 5.2 m/s 16.4 mm 20.5° 1016.2 hPa 5.2 m/s 16.4 mm
20:00 17.9° 1016.2 hPa 3.8 m/s 16.4 mm 17.9° 1016.2 hPa 3.8 m/s 16.4 mm
23:00 14.4° 1016.9 hPa 2.2 m/s 16.4 mm 14.4° 1016.9 hPa 2.2 m/s 16.4 mm
 06:36     20:57    Daglengte: 14:21 Vrijdag 19 Aug
02:00 13.4° 1017.3 hPa 0.5 m/s 16.4 mm 13.4° 1017.3 hPa 0.5 m/s 16.4 mm
05:00 12.9° 1016.9 hPa 1.7 m/s 16.4 mm 12.9° 1016.9 hPa 1.7 m/s 16.4 mm
08:00 15.4° 1016.9 hPa 2.3 m/s 16.4 mm 15.4° 1016.9 hPa 2.3 m/s 16.4 mm
11:00 18.8° 1017.0 hPa 3.7 m/s 16.4 mm 18.8° 1017.1 hPa 3.7 m/s 16.4 mm
14:00 23.1° 1016.2 hPa 5.8 m/s 16.4 mm 23.1° 1016.2 hPa 5.8 m/s 16.4 mm
17:00 22.8° 1015.6 hPa 5.6 m/s 16.5 mm 22.8° 1015.6 hPa 5.6 m/s 16.5 mm
20:00 21.0° 1015.2 hPa 3.8 m/s 16.5 mm 21.0° 1015.2 hPa 3.8 m/s 16.5 mm
23:00 19.3° 1015.1 hPa 3.7 m/s 16.6 mm 19.3° 1015.1 hPa 3.7 m/s 16.6 mm
 06:37     20:55    Daglengte: 14:18 Zaterdag 20 Aug
02:00 17.7° 1014.7 hPa 4.0 m/s 16.8 mm 17.7° 1014.7 hPa 4.0 m/s 16.8 mm
05:00 17.2° 1014.6 hPa 3.5 m/s 16.9 mm 17.2° 1014.6 hPa 3.5 m/s 16.9 mm
08:00 18.6° 1014.8 hPa 3.8 m/s 16.9 mm 18.6° 1014.8 hPa 3.8 m/s 16.9 mm
11:00 22.1° 1015.9 hPa 6.5 m/s 16.9 mm 22.1° 1015.9 hPa 6.5 m/s 16.9 mm
14:00 22.1° 1016.7 hPa 6.8 m/s 16.9 mm 22.1° 1016.7 hPa 6.8 m/s 16.9 mm
20:00 18.9° 1018.2 hPa 4.1 m/s 17.3 mm 18.9° 1018.2 hPa 4.1 m/s 17.3 mm
23:00 15.9° 1019.2 hPa 2.1 m/s 17.4 mm 15.9° 1019.2 hPa 2.1 m/s 17.4 mm
 06:39     20:53    Daglengte: 14:14 Zondag 21 Aug
02:00 15.4° 1019.2 hPa 1.8 m/s 17.4 mm 15.4° 1019.2 hPa 1.8 m/s 17.4 mm
05:00 15.5° 1019.3 hPa 2.8 m/s 17.4 mm 15.5° 1019.3 hPa 2.8 m/s 17.4 mm
08:00 16.6° 1019.7 hPa 3.0 m/s 17.5 mm 16.6° 1019.7 hPa 3.0 m/s 17.5 mm
11:00 19.5° 1020.5 hPa 6.0 m/s 17.6 mm 19.5° 1020.5 hPa 6.0 m/s 17.6 mm
14:00 20.2° 1020.9 hPa 6.9 m/s 17.7 mm 20.2° 1020.9 hPa 6.9 m/s 17.7 mm
17:00 19.5° 1021.1 hPa 5.9 m/s 17.7 mm 19.5° 1021.1 hPa 5.9 m/s 17.7 mm
20:00 17.8° 1020.5 hPa 3.7 m/s 17.7 mm 17.8° 1020.5 hPa 3.7 m/s 17.7 mm
 06:41     20:51    Daglengte: 14:10 Maandag 22 Aug
02:00 16.9° 1019.2 hPa 3.3 m/s 17.8 mm 16.9° 1019.2 hPa 3.3 m/s 17.8 mm
08:00 17.8° 1016.7 hPa 4.8 m/s 17.9 mm 17.8° 1016.7 hPa 4.8 m/s 17.9 mm
14:00 17.3° 1016.1 hPa 6.9 m/s 23.2 mm 17.3° 1016.1 hPa 6.9 m/s 23.2 mm
20:00 19.2° 1014.4 hPa 6.2 m/s 24.4 mm 19.2° 1014.4 hPa 6.2 m/s 24.4 mm
 06:42     20:49    Daglengte: 14:07 Dinsdag 23 Aug
02:00 18.2° 1013.8 hPa 5.9 m/s 25.1 mm 18.2° 1013.8 hPa 5.9 m/s 25.1 mm
08:00 17.9° 1012.6 hPa 4.2 m/s 38.1 mm 17.9° 1012.6 hPa 4.2 m/s 38.1 mm
14:00 22.7° 1014.2 hPa 4.5 m/s 40.6 mm 22.7° 1014.2 hPa 4.5 m/s 40.6 mm
20:00 19.0° 1017.4 hPa 4.2 m/s 40.6 mm 19.0° 1017.4 hPa 4.2 m/s 40.6 mm
 06:44     20:47    Daglengte: 14:03 Woensdag 24 Aug
02:00 15.5° 1020.7 hPa 2.4 m/s 40.6 mm 15.5° 1020.7 hPa 2.4 m/s 40.6 mm
08:00 16.1° 1022.3 hPa 1.6 m/s 40.6 mm 16.1° 1022.3 hPa 1.6 m/s 40.6 mm
14:00 23.8° 1017.5 hPa 1.4 m/s 0.2 mm
20:00 22.0° 1017.2 hPa 2.6 m/s 0.2 mm
 06:45     20:45    Daglengte: 14:00 Donderdag 25 Aug
02:00 18.5° 1018.0 hPa 1.8 m/s 0.0 mm
08:00 17.8° 1018.1 hPa 1.2 m/s 0.1 mm
14:00 24.6° 1018.0 hPa 1.8 m/s 0.4 mm
20:00 21.9° 1018.0 hPa 3.6 m/s 0.2 mm
 06:47     20:42    Daglengte: 13:55 Vrijdag 26 Aug
02:00 18.4° 1018.8 hPa 2.1 m/s 0.3 mm
08:00 17.7° 1019.0 hPa 1.6 m/s 0.2 mm
14:00 24.1° 1019.0 hPa 2.4 m/s 0.2 mm
20:00 21.7° 1018.4 hPa 3.5 m/s 0.1 mm
 06:49     20:40    Daglengte: 13:51 Zaterdag 27 Aug
02:00 17.9° 1019.1 hPa 2.7 m/s 0.0 mm
08:00 17.1° 1018.8 hPa 2.4 m/s 0.1 mm
14:00 23.2° 1018.5 hPa 2.4 m/s 0.3 mm
20:00 20.8° 1017.9 hPa 3.4 m/s 0.3 mm
 06:50     20:38    Daglengte: 13:48 Zondag 28 Aug
02:00 17.4° 1018.7 hPa 2.1 m/s 0.4 mm
08:00 16.9° 1018.4 hPa 1.2 m/s 0.3 mm
14:00 22.0° 1018.6 hPa 1.8 m/s 0.5 mm
20:00 20.3° 1018.1 hPa 3.0 m/s 0.3 mm
 06:52     20:36    Daglengte: 13:44 Maandag 29 Aug
02:00 17.2° 1018.7 hPa 1.9 m/s 0.4 mm
08:00 16.6° 1018.7 hPa 1.2 m/s 0.3 mm
14:00 22.9° 1019.0 hPa 1.8 m/s 0.6 mm
20:00 20.2° 1018.7 hPa 3.4 m/s 0.3 mm
FMI Hirlam - 7.5 km EWN WRFDA - 12 km DWD ICON - 7 km GFS - 25 km Basiskaart






























































Updatetijd (Europe/Amsterdam) Resolutie Lengte Stap
FMI Hirlam 14:15, 20:15, 02:15, 08:15 7.5 km 49h 1h
EWN WRFDA 16:30, 22:30, 04:30, 10:30 12 km 73h 1h
DWD ICON 18:00, 00:00, 06:00, 12:00 7 km 75h 1h
GFS 14:15, 20:15, 02:15, 08:15 25 km 237h 3h
30+ mm
25-30 mm
20-25 mm
15-20 mm
10-15 mm
6-10 mm
4-6 mm
2-4 mm
1-2 mm
0.5-1 mm
0.2-0.5 mm
0.1-0.2 mm
30+ mm
25-30 mm
20-25 mm
15-20 mm
10-15 mm
6-10 mm
4-6 mm
2-4 mm
1-2 mm
0.5-1 mm
0.2-0.5 mm
0.1-0.2 mm
Sneeuwval
Natte sneeuw
Hagel
Vorst
30+ mm
25-30 mm
20-25 mm
15-20 mm
10-15 mm
6-10 mm
4-6 mm
2-4 mm
1-2 mm
0.5-1 mm
0.2-0.5 mm
0.1-0.2 mm
Sneeuwval
Natte sneeuw
Hagel
Vorst
Onweer
50 mm
40 mm
30 mm
26 mm
22 mm
18 mm
14 mm
10 mm
9 mm
8 mm
7 mm
6 mm
5 mm
4.5 mm
4 mm
3.5 mm
3 mm
2.5 mm
2 mm
1.5 mm
1 mm
0.8 mm
0.6 mm
0.4 mm
0.2 mm
0.05 mm
35°
30°
25°
20°
15°
10°
-5°
-10°
-15°
-20°
-25°
-30°
-35°
33> m/s
29 m/s
25 m/s
21 m/s
17 m/s
14 m/s
11 m/s
8 m/s
5 m/s
3 m/s
0 m/s
2600 J/kg
2400 J/kg
2200 J/kg
2000 J/kg
1800 J/kg
1600 J/kg
1400 J/kg
1200 J/kg
1000 J/kg
800 J/kg
600 J/kg
400 J/kg
200 J/kg
70 dBZ
65 dBZ
60 dBZ
55 dBZ
50 dBZ
45 dBZ
40 dBZ
35 dBZ
30 dBZ
25 dBZ
20 dBZ
15 dBZ
10 dBZ
5 dBZ
-1 K
-2 K
-3 K
-4 K
-5 K
-6 K
-7 K
-8 K
-9 K
950 m²/s²
900 m²/s²
850 m²/s²
800 m²/s²
750 m²/s²
700 m²/s²
650 m²/s²
600 m²/s²
550 m²/s²
500 m²/s²
450 m²/s²
400 m²/s²
350 m²/s²
300 m²/s²
250 m²/s²
200 m²/s²
150 m²/s²
100 m²/s²
46 m/s
44 m/s
42 m/s
40 m/s
38 m/s
36 m/s
34 m/s
32 m/s
30 m/s
28 m/s
26 m/s
24 m/s
22 m/s
20 m/s
16 m/s
12 m/s
8 m/s
4 m/s
30 m/s
28 m/s
26 m/s
24 m/s
22 m/s
20 m/s
18 m/s
16 m/s
14 m/s
12 m/s
10 m/s
8 m/s
6 m/s
4 m/s
2 m/s
3.0
2.8
2.6
2.4
2.2
2.0
1.8
1.6
1.4
1.2
1.0
0.8
0.6
0.4
0.2
15
14
13
12
11
10
9
8
7
6
5
4
3
2
1
90%
80%
70%
60%
50%
40%
30%
20%
10%
42
40
38
36
34
32
30
28
26
24
22
20
18
16
14
12
90+ cm
80-90 cm
70-80 cm
60-70 cm
50-60 cm
40-50 cm
30-40 cm
20-30 cm
10-20 cm
1-10 cm
Sneeuwval
Natte sneeuw
Regen
>120 mm
115 mm
110 mm
105 mm
100 mm
95 mm
90 mm
85 mm
80 mm
75 mm
70 mm
65 mm
60 mm
55 mm
50 mm
45 mm
45 mm
40 mm
35 mm
30 mm
25 mm
20 mm
15 mm
10 mm
5 mm
0.1 mm
960 hPa
880 hPa
800 hPa
720 hPa
640 hPa
560 hPa
584 gpdm
568 gpdm
552 gpdm
536 gpdm
520 gpdm
504 gpdm
488 gpdm
Extreem zwaar Noodweer Kans op onweer
15% 15% 5% 50% 15%

Dag




Kaart






35°
30°
25°
20°
15°
10°
-5°
-10°